[[{"header":{"parameterUnit":"m.s-1","parameterCategory":1,"la1":30.2991,"la2":30.254,"lo1":-89.0895,"lo2":-89.0444,"dy":0.0017,"dx":0.0017,"nx":28,"ny":28,"refTime":"2024-04-16T09:00:00:Z","depth":0,"parameterNumber":2,"parameterNumberName":"U-component_of_WINDS"},"data":[0,0,0,0,0,0,0,0,0,0,0,0,0,0,0,0,0,0,0,0,0,0,0,0,0,0,0,0,0,0,0,0,0,0,0,0,0,0,0,0,0,0,0,0,0,0,0,0,0,0,0,0,0,0,0,0,0,0,-4.5604,-4.5606,0,-4.5769,-4.5771,-4.5773,-4.5805,-4.5803,-4.5802,-4.5801,-4.5968,-4.5973,-4.5979,0,0,0,0,0,0,0,0,0,0,0,0,0,-4.5317,-4.5322,-4.5604,-4.5606,-4.5608,-4.5769,-4.5771,-4.5773,-4.5805,-4.5803,-4.5802,-4.58,-4.5966,-4.5973,-4.5979,0,0,0,0,0,0,0,0,0,0,0,0,0,-4.5457,-4.5324,-4.5604,-4.5644,-4.5649,-4.5768,-4.5771,-4.5774,-4.5805,-4.5803,-4.5801,-4.58,-4.5964,-4.5972,-4.598,-4.6071,0,0,-4.6006,-4.601,0,0,0,0,0,0,0,0,-4.5449,-4.5468,-4.5636,-4.5641,-4.5647,-4.5764,-4.5731,-4.5873,-4.5806,-4.5746,-4.5801,-4.5799,-4.5902,-4.5915,-4.595,-4.6079,-4.6086,-4.6007,-4.6012,-4.6016,-4.6018,0,0,0,0,0,0,0,-4.544,-4.5461,-4.5669,-4.5638,-4.5645,-4.5653,-4.5671,-4.5758,-4.5832,-4.5751,-4.5754,-4.5773,-4.5904,-4.5942,-4.5954,-4.6089,-4.6007,-4.6014,-4.6019,-4.6023,-4.6301,-4.6303,0,0,0,0,0,0,-4.5423,-4.5453,-4.5664,-4.5674,-4.5542,-4.566,-4.568,-4.5729,-4.5832,-4.5845,-4.5774,-4.5774,-4.5928,-4.5944,-4.596,-4.6072,-4.6016,-4.6024,-4.6028,-4.6298,-4.6301,-4.6304,0,0,0,0,0,0,-4.5417,-4.5442,-4.5657,-4.5564,-4.5592,-4.5667,-4.5721,-4.5733,-4.577,-4.5849,-4.5863,-4.5799,-4.5927,-4.5948,-4.6043,-4.6079,-4.6027,-4.6035,-4.6296,-4.6299,-4.6302,-4.6298,0,0,0,0,0,0,-4.5408,-4.5439,-4.5474,-4.5565,-4.5597,-4.5738,-4.5724,-4.5737,-4.5785,-4.5786,-4.5876,-4.5889,-4.5928,-4.6031,-4.6052,-4.6089,-4.6042,-4.6293,-4.6297,-4.6301,-4.6295,-4.6301,-4.6306,0,0,0,0,0,-4.5398,-4.5466,-4.5476,-4.5501,-4.5643,-4.574,-4.5758,-4.5802,-4.5788,-4.5824,-4.5875,-4.5886,-4.6072,-4.604,-4.6064,-4.6105,-4.629,-4.6296,-4.6301,-4.6293,-4.63,-4.6305,0,0,0,0,0,0,-4.5377,-4.5479,-4.549,-4.559,-4.5656,-4.5745,-4.5791,-4.5808,-4.5878,-4.5876,-4.5927,-4.5947,-4.6039,-4.6082,-4.6045,-4.6198,-4.6181,-4.6191,-4.6166,-4.6173,-4.6178,-4.6165,-4.6049,0,0,0,0,0,-4.5384,-4.5454,-4.554,-4.5619,-4.5652,-4.5716,-4.576,-4.5788,-4.5858,-4.5886,-4.5944,-4.6011,-4.6085,-4.6132,-4.6204,-4.6303,-4.6322,-4.6343,-4.6348,-4.6352,-4.6359,-4.6414,-4.6424,-4.6321,-4.6321,-4.632,0,0,-4.5398,-4.5463,-4.5504,-4.5617,-4.5671,-4.5742,-4.5739,-4.5815,-4.5868,-4.5897,-4.599,-4.6036,-4.6114,-4.6211,-4.6257,-4.625,-4.6393,-4.6359,-4.6361,-4.6366,-4.642,-4.643,-4.6439,-4.6324,-4.6323,-4.6323,0,0,-4.5461,-4.5518,-4.559,-4.5645,-4.5728,-4.5771,-4.5788,-4.5876,-4.5907,-4.6001,-4.6025,-4.6089,-4.6215,-4.627,-4.6315,-4.6401,-4.6414,-4.6424,-4.6449,-4.6502,-4.651,-4.6517,-4.6546,-4.6556,-4.6431,-4.6431,-4.6431,0,-4.5468,-4.5577,-4.5625,-4.57,-4.5748,-4.578,-4.5853,-4.5904,-4.6006,-4.6039,-4.603,-4.619,-4.6245,-4.6355,-4.6376,-4.6412,-4.6433,-4.6411,-4.6505,-4.6513,-4.6521,-4.6549,-4.656,-4.6432,-4.6432,-4.6431,-4.6431,0,-4.5581,-4.5657,-4.5705,-4.5803,-4.5858,-4.5932,-4.599,-4.604,-4.6064,-4.6108,-4.6204,-4.6272,-4.6358,-4.6387,-4.6411,-4.6501,-4.6494,-4.6495,-4.6477,-4.653,-4.6557,-4.6569,-4.6432,-4.6432,-4.6432,-4.6432,0,0,-4.5632,-4.5757,-4.5774,-4.5819,-4.5914,-4.5973,-4.6049,-4.6134,-4.6175,-4.6245,-4.6309,-4.6416,-4.6418,-4.6468,-4.65,-4.6547,-4.6609,-4.6542,-4.6544,-4.655,-4.671,-4.6706,-4.6718,-4.662,-4.6622,-4.6624,-4.6703,0,-4.5704,-4.5839,-4.5886,-4.5998,-4.6067,-4.61,-4.6166,-4.6231,-4.6274,-4.634,-4.6388,-4.6463,-4.646,-4.6491,-4.6539,-4.6591,-4.6641,-4.6586,-4.6678,-4.668,-4.6653,-4.6733,-4.6729,-4.68,-4.6714,-4.6716,-4.6717,0,-4.5806,-4.5878,-4.5997,-4.6083,-4.6114,-4.6173,-4.6255,-4.6318,-4.6393,-4.6421,-4.6479,-4.6507,-4.6587,-4.6568,-4.6678,-4.664,-4.6681,-4.6712,-4.6716,-4.6724,-4.6699,-4.674,-4.6824,-4.6834,-4.6735,-4.6733,-4.6732,0,-4.5827,-4.5955,-4.6042,-4.608,-4.6184,-4.6224,-4.6269,-4.6343,-4.6392,-4.6464,-4.6496,-4.6577,-4.662,-4.6682,-4.6731,-4.6713,-4.6837,-4.6822,-4.6862,-4.686,-4.6883,-4.688,-4.6972,-4.6915,-4.6914,-4.6914,-4.6914,0,-4.5902,-4.5972,-4.6054,-4.6107,-4.6188,-4.6241,-4.6319,-4.6366,-4.6432,-4.6495,-4.6529,-4.6588,-4.6651,-4.6717,-4.6757,-4.6842,-4.6862,-4.6886,-4.6895,-4.6882,-4.6878,-4.6906,-4.6902,-4.6917,-4.6916,-4.6916,-4.6915,0,-4.5938,-4.5996,-4.6093,-4.6184,-4.6209,-4.6264,-4.6342,-4.6395,-4.6441,-4.6521,-4.6542,-4.6615,-4.6695,-4.6752,-4.6855,-4.6882,-4.6973,-4.6983,-4.6947,-4.6951,-4.6986,-4.6981,-4.7097,-4.7115,-4.7047,-4.7048,-4.7048,0,-4.598,-4.6035,-4.6133,-4.6178,-4.6223,-4.6295,-4.6345,-4.6401,-4.6451,-4.6542,-4.6584,-4.6667,-4.6736,-4.6864,-4.6925,-4.7004,-4.7015,-4.705,-4.7027,-4.7011,-4.7013,-4.7007,-4.7013,-4.7052,-4.7053,-4.7053,-4.7054,0,-4.6048,-4.6074,-4.6144,-4.6226,-4.6285,-4.6351,-4.6418,-4.6453,-4.652,-4.6576,-4.6659,-4.6712,-4.6819,-4.69,-4.6986,-4.7033,-4.7054,-4.7061,-4.7074,-4.7059,-4.7035,-4.7046,-4.6953,-4.7057,-4.7057,-4.7057,-4.7057,-4.7056,-4.6087,-4.6137,-4.6214,-4.6292,-4.6348,-4.641,-4.6465,-4.6518,-4.6588,-4.6679,-4.6708,-4.6794,-4.6869,-4.6987,-4.7035,-4.7103,-4.71,-4.7119,-4.7124,-4.7127,-4.7125,-4.7027,-4.7119,-4.7119,-4.7119,-4.7119,-4.7119,0,-4.6154,-4.6206,-4.6277,-4.637,-4.6431,-4.6448,-4.6523,-4.6573,-4.6648,-4.6717,-4.6785,-4.688,-4.696,-4.7029,-4.7111,-4.7153,-4.7164,-4.7172,-4.7168,-4.7178,-4.7124,-4.7103,-4.7161,-4.7161,-4.7161,-4.7161,-4.7161,-4.7161,-4.6196,-4.6282,-4.6318,-4.6432,-4.6484,-4.6568,-4.6609,-4.6667,-4.6722,-4.6827,-4.6893,-4.6938,-4.7007,-4.7095,-4.7169,-4.7188,-4.7215,-4.722,-4.724,-4.7187,-4.7182,-4.7177,-4.7158,-4.7227,-4.7227,-4.7289,-4.729,-4.729]},{"header":{"parameterUnit":"m.s-1","parameterCategory":1,"la1":30.2991,"la2":30.254,"lo1":-89.0895,"lo2":-89.0444,"dy":0.0017,"dx":0.0017,"nx":28,"ny":28,"refTime":"2024-04-16T09:00:00:Z","depth":0,"parameterNumber":3,"parameterNumberName":"V-component_of_WINDS"},"data":[0,0,0,0,0,0,0,0,0,0,0,0,0,0,0,0,0,0,0,0,0,0,0,0,0,0,0,0,0,0,0,0,0,0,0,0,0,0,0,0,0,0,0,0,0,0,0,0,0,0,0,0,0,0,0,0,0,0,3.7598,3.7598,0,3.7646,3.7647,3.7647,3.7672,3.7672,3.7672,3.7672,3.772,3.7722,3.7723,0,0,0,0,0,0,0,0,0,0,0,0,0,3.7528,3.7529,3.7598,3.7598,3.7599,3.7646,3.7647,3.7647,3.7672,3.7672,3.7672,3.7672,3.772,3.7721,3.7723,0,0,0,0,0,0,0,0,0,0,0,0,0,3.7565,3.7529,3.7598,3.7617,3.7619,3.7646,3.7647,3.7648,3.7672,3.7672,3.7672,3.7672,3.7719,3.7721,3.7723,3.7734,0,0,3.7729,3.773,0,0,0,0,0,0,0,0,3.7563,3.7568,3.7613,3.7616,3.7618,3.7653,3.764,3.7677,3.7672,3.7652,3.7672,3.7672,3.7698,3.7701,3.771,3.7737,3.7739,3.7729,3.773,3.7731,3.7732,0,0,0,0,0,0,0,3.756,3.7566,3.7617,3.7614,3.7617,3.7623,3.7629,3.7647,3.7674,3.7653,3.7655,3.7661,3.7699,3.7709,3.7712,3.7739,3.7729,3.7731,3.7732,3.7733,3.778,3.778,0,0,0,0,0,0,3.7555,3.7564,3.7615,3.7618,3.759,3.7625,3.7631,3.7642,3.7674,3.7679,3.7661,3.7662,3.7705,3.771,3.7714,3.773,3.7731,3.7733,3.7734,3.778,3.778,3.778,0,0,0,0,0,0,3.7553,3.7559,3.7613,3.7592,3.7599,3.7626,3.7638,3.7643,3.7652,3.7679,3.7684,3.7665,3.7705,3.7711,3.773,3.7732,3.7734,3.7735,3.7779,3.778,3.778,3.7762,0,0,0,0,0,0,3.7551,3.7558,3.7562,3.7591,3.76,3.7628,3.7638,3.7644,3.7656,3.7657,3.7685,3.769,3.7706,3.7727,3.7732,3.7735,3.7737,3.7779,3.7779,3.778,3.7763,3.7762,3.7761,0,0,0,0,0,3.7548,3.7555,3.7563,3.7569,3.7606,3.7628,3.7633,3.7652,3.7656,3.766,3.7678,3.7689,3.7731,3.7728,3.7734,3.7738,3.7779,3.7779,3.778,3.7763,3.7762,3.7761,0,0,0,0,0,0,3.7525,3.7559,3.7568,3.7584,3.7603,3.7632,3.7639,3.765,3.7668,3.7669,3.7692,3.7698,3.7715,3.7728,3.7724,3.7752,3.7756,3.7758,3.7742,3.7741,3.774,3.7736,3.7739,0,0,0,0,0,3.7522,3.7537,3.7566,3.7578,3.7587,3.7611,3.7622,3.7635,3.7656,3.7664,3.7683,3.7702,3.7721,3.7732,3.7749,3.7765,3.7772,3.7771,3.777,3.7769,3.777,3.7781,3.7781,3.7781,3.7781,3.7781,0,0,3.7515,3.7535,3.7543,3.7573,3.759,3.7606,3.7618,3.7634,3.7646,3.7666,3.7685,3.77,3.7724,3.7741,3.775,3.7753,3.7772,3.777,3.7769,3.777,3.7781,3.7781,3.7781,3.7781,3.7781,3.7781,0,0,3.751,3.7527,3.754,3.7556,3.7582,3.7598,3.7601,3.7629,3.764,3.766,3.7676,3.7691,3.7721,3.7738,3.775,3.7756,3.7766,3.7761,3.7756,3.7766,3.7766,3.7767,3.7769,3.777,3.7762,3.7761,3.7761,0,3.7499,3.7523,3.7544,3.756,3.7573,3.7593,3.7607,3.7622,3.7651,3.766,3.7663,3.7703,3.772,3.7743,3.7745,3.7754,3.7758,3.7757,3.7765,3.7765,3.7766,3.7768,3.7769,3.7761,3.7761,3.7761,3.7761,0,3.7508,3.7525,3.7532,3.7561,3.7575,3.7589,3.7613,3.7625,3.7638,3.7654,3.7675,3.7697,3.772,3.7727,3.7739,3.7752,3.7753,3.776,3.7765,3.7764,3.7767,3.7768,3.776,3.776,3.776,3.776,0,0,3.7488,3.7531,3.7533,3.7547,3.7578,3.7591,3.7607,3.7631,3.7641,3.7662,3.7676,3.7702,3.771,3.7724,3.7738,3.7748,3.7752,3.7754,3.7755,3.7753,3.7769,3.7763,3.7764,3.7759,3.776,3.776,3.7767,0,3.7488,3.7518,3.7538,3.756,3.7577,3.7598,3.7612,3.7632,3.7649,3.7666,3.7684,3.7703,3.7711,3.772,3.773,3.7749,3.7755,3.7749,3.7773,3.7774,3.7766,3.7765,3.7759,3.7764,3.7768,3.7768,3.7768,0,3.7492,3.7513,3.7536,3.7567,3.7575,3.7587,3.7612,3.7627,3.7652,3.7663,3.768,3.7696,3.7714,3.7719,3.7745,3.774,3.7752,3.7763,3.7764,3.7767,3.777,3.7768,3.7766,3.7767,3.777,3.777,3.777,0,3.7476,3.751,3.7529,3.7541,3.7577,3.7585,3.76,3.7625,3.7639,3.766,3.767,3.7693,3.7706,3.7724,3.7745,3.7746,3.777,3.7775,3.778,3.7779,3.7783,3.7783,3.7783,3.7791,3.7791,3.7791,3.7791,0,3.7474,3.7488,3.7523,3.7534,3.7551,3.7575,3.7591,3.7608,3.763,3.7646,3.7665,3.768,3.7707,3.7726,3.7743,3.7762,3.7768,3.7778,3.7782,3.7776,3.7775,3.7784,3.7784,3.7791,3.7791,3.7791,3.7791,0,3.7459,3.7482,3.7504,3.7538,3.7546,3.7557,3.7586,3.7598,3.7616,3.7636,3.7642,3.7671,3.7694,3.7717,3.7747,3.7759,3.7778,3.7784,3.777,3.7773,3.7776,3.7775,3.7782,3.7785,3.779,3.779,3.779,0,3.7455,3.7467,3.7502,3.7514,3.7529,3.7548,3.7563,3.7588,3.7602,3.7633,3.7642,3.7666,3.7687,3.7722,3.7745,3.7769,3.7776,3.7777,3.7779,3.7773,3.7776,3.7775,3.7777,3.7775,3.7775,3.7775,3.7775,0,3.7448,3.746,3.748,3.7505,3.7522,3.7543,3.7564,3.7573,3.7603,3.7618,3.7642,3.7658,3.769,3.7714,3.7741,3.7758,3.7771,3.7774,3.7777,3.777,3.7762,3.7767,3.7768,3.7774,3.7774,3.7774,3.7774,3.7774,3.7439,3.7451,3.7477,3.75,3.7519,3.7539,3.7553,3.7574,3.7594,3.7623,3.7636,3.766,3.7687,3.7725,3.7741,3.776,3.7764,3.7767,3.7768,3.7769,3.7767,3.7759,3.7765,3.7765,3.7765,3.7765,3.7765,0,3.7433,3.7452,3.7472,3.7502,3.752,3.7533,3.7558,3.7572,3.7593,3.7617,3.7637,3.7665,3.769,3.7716,3.7742,3.7752,3.7759,3.7758,3.7758,3.7761,3.7762,3.7758,3.7752,3.7752,3.7752,3.7752,3.7752,3.7752,3.7432,3.7452,3.7468,3.7499,3.7518,3.7542,3.7555,3.7574,3.7593,3.7624,3.7644,3.7662,3.7687,3.7715,3.7738,3.7745,3.7754,3.7751,3.776,3.776,3.7761,3.7762,3.7758,3.7753,3.7753,3.7758,3.7758,3.7758]}]]